Weather History for Key West, FL

Change the Weather History Date:

Friday, March 8, 2013

  Actual Average Record
Temperature  
Mean Temperature 67 °F 73 °F  
Max Temperature 73 °F 78 °F 86 °F (1967)
Min Temperature 60 °F 68 °F 52 °F (1899)
Degree Days  
Heating Degree Days 0 0  
Month to date heating degree days 11 0  
Since 1 July heating degree days 23 66  
Cooling Degree Days 2 8  
Month to date cooling degree days 10 63  
Year to date cooling degree days 544 411  
Growing Degree Days 16 (Base 50)    
Moisture  
Dew Point 54 °F    
Average Humidity 66    
Maximum Humidity 78    
Minimum Humidity 53    
Precipitation  
Precipitation 0.00 in 0.07 in 1.93 in (1941)
Month to date precipitation 0.17 0.58  
Year to date precipitation 1.71 4.11  
Snow  
Snow 0.00 in - - ()
Month to date snowfall 0.0  
Since 1 July snowfall 0.0  
Snow Depth 0.00 in    
Sea Level Pressure  
Sea Level Pressure 30.17 in    
Wind  
Wind Speed 7 mph (NNE)    
Max Wind Speed 14 mph    
Max Gust Speed 16 mph    
Visibility 10 miles    
Events      
T = Trace of Precipitation, MM = Missing Value Source: NWS Daily Summary

Daily Weather History Graph

Daily Weather History Graph

Search for Another Location

Airport:

Trip Planner

Search our weather history database for the weather conditions in past years. The results will help you decide how hot, cold, wet, or windy it might be!

Date:

Astronomy

Mar. 08, 2013 Rise Set
Actual Time 6:42 AM EST 6:33 PM EST
Civil Twilight 6:19 AM EST 6:55 PM EST
Nautical Twilight 5:53 AM EST 7:22 PM EST
Astronomical Twilight 5:27 AM EST 7:48 PM EST
Moon 4:08 AM EST (3/8) 3:41 PM EST (3/8)
Length of Visible Light 12h 35m
Length of Day
11h 50m
Waning Crescent, 12% of the Moon is Illuminated
Mar 8
Waning Crescent
Mar 11
New
Mar 19
First Quarter
Mar 27
Full
Apr 3
Last Quarter

Hourly Weather History & Observations

Time (EST) Temp. Dew Point Humidity Pressure Visibility Wind Dir Wind Speed Gust Speed Precip Events Conditions
12:53 AM 62.1 °F 51.1 °F 67% 30.17 in 10.0 mi NNE 8.1 mph - N/A   Clear
1:53 AM 62.1 °F 52.0 °F 70% 30.17 in 10.0 mi NNE 8.1 mph - N/A   Clear
2:53 AM 62.1 °F 52.0 °F 70% 30.15 in 10.0 mi NNE 6.9 mph - N/A   Clear
3:53 AM 62.1 °F 51.1 °F 67% 30.14 in 10.0 mi NNE 6.9 mph - N/A   Clear
4:53 AM 61.0 °F 52.0 °F 72% 30.15 in 10.0 mi NNE 6.9 mph - N/A   Clear
5:53 AM 61.0 °F 51.1 °F 70% 30.16 in 10.0 mi NNE 5.8 mph - N/A   Clear
6:53 AM 60.1 °F 51.1 °F 72% 30.17 in 10.0 mi NNE 5.8 mph - N/A   Clear
7:53 AM 64.0 °F 53.1 °F 67% 30.19 in 10.0 mi NNE 8.1 mph - N/A   Clear
8:53 AM 66.0 °F 52.0 °F 60% 30.20 in 10.0 mi NNE 11.5 mph - N/A   Clear
9:53 AM 68.0 °F 52.0 °F 56% 30.20 in 10.0 mi ENE 8.1 mph - N/A   Clear
10:53 AM 68.0 °F 52.0 °F 56% 30.21 in 10.0 mi NNE 11.5 mph - N/A   Clear
11:53 AM 70.0 °F 52.0 °F 53% 30.19 in 10.0 mi ENE 6.9 mph - N/A   Clear
12:53 PM 70.0 °F 52.0 °F 53% 30.17 in 10.0 mi NNE 12.7 mph - N/A   Clear
1:53 PM 72.0 °F 54.0 °F 53% 30.15 in 10.0 mi NNE 10.4 mph - N/A   Clear
2:53 PM 72.0 °F 55.0 °F 55% 30.14 in 10.0 mi Variable 6.9 mph - N/A   Clear
3:53 PM 73.0 °F 55.9 °F 55% 30.14 in 10.0 mi North 9.2 mph - N/A   Clear
4:53 PM 72.0 °F 57.0 °F 59% 30.14 in 10.0 mi North 4.6 mph - N/A   Clear
5:53 PM 71.1 °F 57.0 °F 61% 30.15 in 10.0 mi North 4.6 mph - N/A   Clear
6:53 PM 68.0 °F 57.9 °F 70% 30.16 in 10.0 mi North 3.5 mph - N/A   Clear
7:53 PM 66.9 °F 57.9 °F 73% 30.17 in 10.0 mi North 3.5 mph - N/A   Clear
8:53 PM 66.0 °F 57.9 °F 75% 30.18 in 10.0 mi NNE 4.6 mph - N/A   Clear
9:53 PM 66.0 °F 59.0 °F 78% 30.18 in 10.0 mi NNE 4.6 mph - N/A   Clear
10:53 PM 66.0 °F 59.0 °F 78% 30.18 in 10.0 mi NNE 5.8 mph - N/A   Clear
11:53 PM 66.0 °F 59.0 °F 78% 30.16 in 10.0 mi NNE 4.6 mph - N/A   Clear